620 
ASUS46 KSEW 011110
RWRWA 

WASHINGTON REGIONAL WEATHER ROUNDUP
NATIONAL WEATHER SERVICE SEATTLE WA
400 AM PDT MON SEP 01 2014

NOTE:"FAIR" INDICATES FEW OR NO CLOUDS BELOW 12,000 FEET WITH NO 
SIGNIFICANT WEATHER AND/OR OBSTRUCTIONS TO VISIBILITY.

WAZ505-507>509-011200-
SEATTLE, TACOMA, EVERETT, AND VICINITY
  
CITY           SKY/WX    TMP DP  RH WIND       PRES   REMARKS
EVERETT        CLOUDY    59  53  80 S5        30.08R                  
BOEING FIELD   CLOUDY    63  54  72 SE8       30.07R                  
RENTON         MOCLDY    58  55  90 E3        30.07R                  
SEATAC AIRPORT PTCLDY    58  52  80 CALM      30.08R                  
JBLM-MCCHORD   MOCLDY    54  52  92 NW1       30.07S                  
PUYALLUP       NOT AVBL                                               
JBLM-FT LEWIS  DRIZZLE   54  52  92 SE2       30.07R                  
TACOMA NARROWS PTCLDY    56  52  86 S3        30.07S                  
$$
 
WAZ001-503-506-510-514-515-011200-
NORTH INTERIOR
  
CITY           SKY/WX    TMP DP  RH WIND       PRES   REMARKS
BELLINGHAM     CLOUDY    61  52  72 S5        30.04S                  
FRIDAY HARBOR  MOCLDY    52  50  93 CALM      30.06S                  
EASTSOUND      CLEAR     57  52  82 S3        30.03S                  
PORT ANGELES   CLEAR     54  51  90 SW6       30.06S                  
NAS WHIDBEY    CLOUDY    60  53  77 SE5       30.07R                  
BURLINGTON     PTCLDY    55  54  94 CALM      30.07S                  
$$
 
WAZ020-022-039-040-504-511-512-011200-
SOUTHWEST INTERIOR
  
CITY           SKY/WX    TMP DP  RH WIND       PRES   REMARKS
SHELTON        MOCLDY    56  55  97 W3        30.05S                  
OLYMPIA        MOCLDY    56  53  90 SW7       30.07S                  
CHEHALIS       FAIR      52  52 100 CALM      30.08S                  
KELSO          CLEAR     52  46  82 CALM      30.12R                  
VANCOUVER      CLEAR     54  51  90 CALM      30.08R                  
SCAPPOOSE, OR  CLEAR     52  49  89 CALM      30.08R                  
PORTLAND, OR   CLEAR     59  54  83 CALM      30.08S                  
$$
 
WAZ021-516-517-011200-
WASHINGTON COAST
  
CITY           SKY/WX    TMP DP  RH WIND       PRES   REMARKS
FORKS          PTCLDY    52  51  97 CALM      30.06S                  
HOQUIAM        CLOUDY    60  59  96 E6        30.07S                  
ASTORIA, OR    CLOUDY    58  55  90 SE3       30.06F                  
$$
 
WAZ019-023-024-040-518-519-011200-
CASCADE MOUNTAINS AND COLUMBIA GORGE
  
CITY           SKY/WX    TMP DP  RH WIND       PRES   REMARKS
STAMPEDE PASS  NOT AVBL                                               
TROUTDALE, OR  CLEAR     55  52  89 CALM      30.07S                  
THE DALLES, OR CLEAR     55  49  80 SW6       30.04R                  
$$

WAZ026-027-041>044-520-521-011200-
EAST SLOPES
  
CITY           SKY/WX    TMP DP  RH WIND       PRES   REMARKS
OMAK           CLEAR     53  37  54 W7        29.99R                  
WENATCHEE      CLEAR     59  40  49 N7        30.00R                  
ELLENSBURG     CLEAR     57  44  62 NW16      30.02F                  
YAKIMA         CLEAR     49  42  77 W5        30.03R                  
$$

WAZ028-034-035-011200-
COLUMBIA BASIN
  
CITY           SKY/WX    TMP DP  RH WIND       PRES   REMARKS
EPHRATA        CLEAR     62  38  40 MISG      29.97S                  
MOSES LAKE     CLEAR     56  41  57 W8        29.99S                  
PASCO          CLEAR     52  48  86 CALM      30.02R                  
HERMISTON, OR  CLEAR     56  47  71 SW6       30.02S                  
$$

WAZ036>038-011200-
NORTHEAST WASHINGTON
  
CITY           SKY/WX    TMP DP  RH WIND       PRES   REMARKS
SPOKANE GEIGER PTCLDY    49  38  65 S10       30.00R                  
SPOKANE FELTS  CLEAR     56  38  50 CALM      30.01R                  
FAIRCHILD AFB  CLEAR     47  38  73 S9        30.00R                  
COEURDALENE,ID PTCLDY    52  43  71 SE3       29.99S                  
DEER PARK      CLEAR     41  35  79 CALM      30.00R                  
$$

WAZ029>033-011200-
SOUTHEAST WASHINGTON
  
CITY           SKY/WX    TMP DP  RH WIND       PRES   REMARKS
PULLMAN        CLOUDY    54  39  57 SW9       30.05R                  
LEWISTON, ID   CLOUDY    61  42  49 CALM      30.02                   
WALLA WALLA    MOCLDY    57  45  64 S9        30.04S                  
PENDLETON, OR  CLOUDY    56  44  64 SE5       30.04S                  
$$